START_TIME,STEP,MOV.,A46,t_acc.,A13,t_acc.,M47,t_acc.,A17,t_acc.,A28,t_acc.,M38,t_acc.
1979-03-07 12:00:23.260 ,3,0,,0,2.,4.8,0.,4.8,,0,0.,4.8,0.,4.8
1979-03-07 12:00:28.060 ,3,0,,0,5.,4.8,0.,4.8,,0,0.,4.8,0.,4.8
1979-03-07 12:00:32.860 ,3,0,,0,14.,4.8,2.,4.8,,0,0.,4.8,0.,4.8
1979-03-07 12:00:37.660 ,3,0,,0,0.,4.8,0.,4.8,,0,0.,4.8,0.,4.8
1979-03-07 12:00:42.460 ,3,0,,0,0.,4.8,0.,4.8,,0,0.,4.8,0.,4.8
1979-03-07 12:00:47.260 ,7,0,,0,0.,4.8,0.,4.8,,0,0.,4.8,0.,4.8
1979-03-07 12:00:52.060 ,7,0,,0,0.,4.8,0.,4.8,,0,0.,4.8,0.,4.8
1979-03-07 12:00:56.860 ,7,0,,0,0.,4.8,0.,4.8,,0,0.,4.8,0.,4.8
1979-03-07 12:01:01.660 ,7,0,,0,7.,4.8,0.,4.8,,0,0.,4.8,0.,4.8
1979-03-07 12:01:06.460 ,7,0,,0,4.,4.8,0.,4.8,,0,0.,4.8,0.,4.8
1979-03-07 12:01:11.260 ,4,0,,0,5.,4.8,0.,4.8,,0,0.,4.8,0.,4.8
1979-03-07 12:01:16.060 ,4,0,,0,4.,4.8,0.,4.8,,0,0.,4.8,0.,4.8
1979-03-07 12:01:20.860 ,4,0,,0,12.,4.8,3.,4.8,,0,0.,4.8,0.,4.8
1979-03-07 12:01:25.660 ,4,0,,0,0.,4.8,0.,4.8,,0,0.,4.8,0.,4.8
1979-03-07 12:01:30.460 ,4,0,,0,0.,4.8,0.,4.8,,0,0.,4.8,0.,4.8
1979-03-07 12:01:35.260 ,0,0,,0,0.,4.8,0.,4.8,,0,0.,4.8,0.,4.8
1979-03-07 12:01:40.060 ,0,0,,0,0.,4.8,0.,4.8,,0,0.,4.8,0.,4.8
1979-03-07 12:01:44.860 ,0,0,,0,1.,4.8,0.,4.8,,0,0.,4.8,0.,4.8
1979-03-07 12:01:49.660 ,0,0,,0,4.,4.8,0.,4.8,,0,0.,4.8,0.,4.8
1979-03-07 12:01:54.460 ,0,0,,0,7.,4.8,0.,4.8,,0,0.,4.8,0.,4.8
1979-03-07 12:01:59.260 ,3,0,,0,5.,4.8,0.,4.8,,0,0.,4.8,0.,4.8
1979-03-07 12:02:04.060 ,3,0,,0,6.,4.8,0.,4.8,,0,0.,4.8,0.,4.8
1979-03-07 12:02:08.860 ,3,0,,0,4.,4.8,1.,4.8,,0,0.,4.8,0.,4.8
1979-03-07 12:02:13.660 ,3,0,,0,0.,4.8,0.,4.8,,0,0.,4.8,0.,4.8
1979-03-07 12:02:18.460 ,3,0,,0,0.,4.8,0.,4.8,,0,0.,4.8,0.,4.8
1979-03-07 12:02:23.260 ,7,0,,0,0.,4.8,0.,4.8,,0,0.,4.8,0.,4.8
1979-03-07 12:02:28.060 ,7,0,,0,0.,4.8,0.,4.8,,0,0.,4.8,0.,4.8
1979-03-07 12:02:32.860 ,7,0,,0,2.,4.8,0.,4.8,,0,0.,4.8,0.,4.8
1979-03-07 12:02:37.660 ,7,0,,0,8.,4.8,0.,4.8,,0,0.,4.8,0.,4.8
1979-03-07 12:02:42.460 ,7,0,,0,3.,4.8,0.,4.8,,0,0.,4.8,0.,4.8
1979-03-07 12:02:47.260 ,4,0,,0,7.,4.8,0.,4.8,,0,0.,4.8,0.,4.8
1979-03-07 12:02:52.060 ,4,0,,0,5.,4.8,1.,4.8,,0,0.,4.8,0.,4.8
1979-03-07 12:02:56.860 ,4,0,,0,11.,4.8,1.,4.8,,0,0.,4.8,0.,4.8
1979-03-07 12:03:01.660 ,4,0,,0,0.,4.8,0.,4.8,,0,0.,4.8,0.,4.8
1979-03-07 12:03:06.460 ,4,0,,0,0.,4.8,0.,4.8,,0,0.,4.8,0.,4.8
1979-03-07 12:03:11.260 ,0,0,,0,0.,4.8,0.,4.8,,0,0.,4.8,0.,4.8
1979-03-07 12:03:16.060 ,0,0,,0,0.,4.8,0.,4.8,,0,0.,4.8,0.,4.8
1979-03-07 12:03:20.860 ,0,0,,0,0.,4.8,0.,4.8,,0,0.,4.8,0.,4.8
1979-03-07 12:03:25.660 ,0,0,,0,7.,4.8,1.,4.8,,0,0.,4.8,0.,4.8
1979-03-07 12:03:30.460 ,0,0,,0,10.,4.8,0.,4.8,,0,0.,4.8,0.,4.8
1979-03-07 12:03:35.260 ,3,0,,0,9.,4.8,0.,4.8,,0,0.,4.8,0.,4.8
1979-03-07 12:03:40.060 ,3,0,,0,15.,4.8,0.,4.8,,0,0.,4.8,0.,4.8
1979-03-07 12:03:44.860 ,3,0,,0,18.,4.8,1.,4.8,,0,0.,4.8,0.,4.8
1979-03-07 12:03:49.660 ,3,0,,0,0.,4.8,0.,4.8,,0,0.,4.8,0.,4.8
1979-03-07 12:03:54.460 ,3,0,,0,0.,4.8,0.,4.8,,0,0.,4.8,0.,4.8
1979-03-07 12:03:59.260 ,7,0,,0,0.,4.8,0.,4.8,,0,0.,4.8,0.,4.8
1979-03-07 12:04:04.060 ,7,0,,0,0.,4.8,0.,4.8,,0,0.,4.8,0.,4.8
1979-03-07 12:04:08.860 ,7,0,,0,0.,4.8,0.,4.8,,0,0.,4.8,0.,4.8
1979-03-07 12:04:13.660 ,7,0,,0,11.,4.8,0.,4.8,,0,0.,4.8,0.,4.8
1979-03-07 12:04:18.460 ,7,0,,0,5.,4.8,0.,4.8,,0,0.,4.8,0.,4.8
1979-03-07 12:04:23.260 ,4,0,,0,8.,4.8,0.,4.8,,0,0.,4.8,0.,4.8
1979-03-07 12:04:28.060 ,4,0,,0,7.,4.8,1.,4.8,,0,0.,4.8,0.,4.8
1979-03-07 12:04:32.860 ,4,0,,0,16.,4.8,1.,4.8,,0,0.,4.8,0.,4.8
1979-03-07 12:04:37.660 ,4,0,,0,0.,4.8,0.,4.8,,0,0.,4.8,0.,4.8
1979-03-07 12:04:42.460 ,4,0,,0,0.,4.8,0.,4.8,,0,0.,4.8,0.,4.8
1979-03-07 12:04:47.260 ,0,0,,0,0.,4.8,0.,4.8,,0,0.,4.8,0.,4.8
1979-03-07 12:04:52.060 ,0,0,,0,0.,4.8,0.,4.8,,0,0.,4.8,0.,4.8
1979-03-07 12:04:56.860 ,0,0,,0,3.,4.8,0.,4.8,,0,0.,4.8,0.,4.8
1979-03-07 12:05:01.660 ,0,0,,0,14.,4.8,0.,4.8,,0,0.,4.8,0.,4.8
1979-03-07 12:05:06.460 ,0,0,,0,10.,4.8,0.,4.8,,0,0.,4.8,0.,4.8
1979-03-07 12:05:11.260 ,3,0,,0,10.,4.8,0.,4.8,,0,0.,4.8,0.,4.8
1979-03-07 12:05:16.060 ,3,0,,0,14.,4.8,2.,4.8,,0,0.,4.8,0.,4.8
1979-03-07 12:05:20.860 ,3,0,,0,15.,4.8,2.,4.8,,0,0.,4.8,0.,4.8
1979-03-07 12:05:25.660 ,3,0,,0,0.,4.8,0.,4.8,,0,0.,4.8,0.,4.8
1979-03-07 12:05:30.460 ,3,0,,0,0.,4.8,0.,4.8,,0,0.,4.8,0.,4.8
1979-03-07 12:05:35.260 ,7,0,,0,0.,4.8,0.,4.8,,0,0.,4.8,0.,4.8
1979-03-07 12:05:40.060 ,7,0,,0,0.,4.8,0.,4.8,,0,0.,4.8,0.,4.8
1979-03-07 12:05:44.860 ,7,0,,0,4.,4.8,1.,4.8,,0,0.,4.8,0.,4.8
1979-03-07 12:05:49.660 ,7,0,,0,10.,4.8,1.,4.8,,0,0.,4.8,0.,4.8
1979-03-07 12:05:54.460 ,7,0,,0,5.,4.8,0.,4.8,,0,0.,4.8,0.,4.8
1979-03-07 12:05:59.260 ,4,0,,0,8.,4.8,0.,4.8,,0,0.,4.8,0.,4.8
1979-03-07 12:06:04.060 ,4,0,,0,10.,4.8,0.,4.8,,0,0.,4.8,0.,4.8
1979-03-07 12:06:08.860 ,4,0,,0,20.,4.8,5.,4.8,,0,0.,4.8,0.,4.8
1979-03-07 12:06:13.660 ,4,0,,0,0.,4.8,0.,4.8,,0,0.,4.8,0.,4.8
1979-03-07 12:06:18.460 ,4,0,,0,0.,4.8,0.,4.8,,0,0.,4.8,0.,4.8
1979-03-07 12:06:23.260 ,0,0,,0,0.,4.8,0.,4.8,,0,0.,4.8,0.,4.8
1979-03-07 12:06:28.060 ,0,0,,0,0.,4.8,0.,4.8,,0,0.,4.8,0.,4.8
1979-03-07 12:06:32.860 ,0,0,,0,3.,4.8,2.,4.8,,0,0.,4.8,0.,4.8
1979-03-07 12:06:37.660 ,0,0,,0,6.,4.8,0.,4.8,,0,0.,4.8,0.,4.8
1979-03-07 12:06:42.460 ,0,0,,0,10.,4.8,0.,4.8,,0,0.,4.8,0.,4.8
1979-03-07 12:06:47.260 ,3,0,,0,7.,4.8,0.,4.8,,0,0.,4.8,0.,4.8
1979-03-07 12:06:52.060 ,3,0,,0,13.,4.8,3.,4.8,,0,0.,4.8,0.,4.8
1979-03-07 12:06:56.860 ,3,0,,0,20.,4.8,3.,4.8,,0,0.,4.8,0.,4.8
1979-03-07 12:07:01.660 ,3,0,,0,0.,4.8,0.,4.8,,0,0.,4.8,0.,4.8
1979-03-07 12:07:06.460 ,3,0,,0,0.,4.8,0.,4.8,,0,0.,4.8,0.,4.8
1979-03-07 12:07:11.260 ,7,0,,0,0.,4.8,0.,4.8,,0,0.,4.8,0.,4.8
1979-03-07 12:07:16.060 ,7,0,,0,0.,4.8,0.,4.8,,0,0.,4.8,0.,4.8
1979-03-07 12:07:20.860 ,7,0,,0,1.,4.8,1.,4.8,,0,0.,4.8,0.,4.8
1979-03-07 12:07:25.660 ,7,0,,0,7.,4.8,1.,4.8,,0,0.,4.8,0.,4.8
1979-03-07 12:07:30.460 ,7,0,,0,4.,4.8,0.,4.8,,0,0.,4.8,0.,4.8
1979-03-07 12:07:35.260 ,4,0,,0,2.,4.8,0.,4.8,,0,0.,4.8,0.,4.8
1979-03-07 12:07:40.060 ,4,0,,0,11.,4.8,0.,4.8,,0,0.,4.8,0.,4.8
1979-03-07 12:07:44.860 ,4,0,,0,27.,4.8,6.,4.8,,0,0.,4.8,0.,4.8
1979-03-07 12:07:49.660 ,4,0,,0,0.,4.8,0.,4.8,,0,0.,4.8,0.,4.8
1979-03-07 12:07:54.460 ,4,0,,0,0.,4.8,0.,4.8,,0,0.,4.8,0.,4.8
1979-03-07 12:07:59.260 ,0,0,,0,0.,4.8,0.,4.8,,0,0.,4.8,0.,4.8
1979-03-07 12:08:04.060 ,0,0,,0,0.,4.8,0.,4.8,,0,0.,4.8,0.,4.8
1979-03-07 12:08:08.860 ,0,0,,0,8.,4.8,0.,4.8,,0,0.,4.8,0.,4.8
1979-03-07 12:08:13.660 ,0,0,,0,16.,4.8,1.,4.8,,0,0.,4.8,0.,4.8
1979-03-07 12:08:18.460 ,0,0,,0,16.,4.8,0.,4.8,,0,0.,4.8,0.,4.8
1979-03-07 12:08:23.260 ,3,0,,0,11.,4.8,2.,4.8,,0,0.,4.8,0.,4.8
1979-03-07 12:08:28.060 ,3,0,,0,35.,4.8,8.,4.8,,0,0.,4.8,0.,4.8
1979-03-07 12:08:32.860 ,3,0,,0,42.,4.8,9.,4.8,,0,0.,4.8,0.,4.8
1979-03-07 12:08:37.660 ,3,0,,0,0.,4.8,0.,4.8,,0,0.,4.8,0.,4.8
1979-03-07 12:08:42.460 ,3,0,,0,0.,4.8,0.,4.8,,0,0.,4.8,0.,4.8
1979-03-07 12:08:47.260 ,7,0,,0,1.,4.8,0.,4.8,,0,0.,4.8,0.,4.8
1979-03-07 12:08:52.060 ,7,0,,0,0.,4.8,0.,4.8,,0,0.,4.8,0.,4.8
1979-03-07 12:08:56.860 ,7,0,,0,5.,4.8,0.,4.8,,0,0.,4.8,0.,4.8
1979-03-07 12:09:01.660 ,7,0,,0,22.,4.8,3.,4.8,,0,0.,4.8,0.,4.8
1979-03-07 12:09:06.460 ,7,0,,0,4.,4.8,0.,4.8,,0,0.,4.8,0.,4.8
1979-03-07 12:09:11.260 ,4,0,,0,2.,4.8,0.,4.8,,0,0.,4.8,0.,4.8
1979-03-07 12:09:16.060 ,4,0,,0,23.,4.8,1.,4.8,,0,0.,4.8,0.,4.8
1979-03-07 12:09:20.860 ,4,0,,0,30.,4.8,3.,4.8,,0,0.,4.8,0.,4.8
1979-03-07 12:09:25.660 ,4,0,,0,0.,4.8,0.,4.8,,0,0.,4.8,0.,4.8
1979-03-07 12:09:30.460 ,4,0,,0,0.,4.8,0.,4.8,,0,0.,4.8,0.,4.8
1979-03-07 12:09:35.260 ,0,0,,0,0.,4.8,0.,4.8,,0,0.,4.8,0.,4.8
1979-03-07 12:09:40.060 ,0,0,,0,0.,4.8,0.,4.8,,0,0.,4.8,0.,4.8
1979-03-07 12:09:44.860 ,0,0,,0,3.,4.8,0.,4.8,,0,0.,4.8,0.,4.8
1979-03-07 12:09:49.660 ,0,0,,0,25.,4.8,1.,4.8,,0,0.,4.8,0.,4.8
1979-03-07 12:09:54.460 ,0,0,,0,23.,4.8,2.,4.8,,0,0.,4.8,0.,4.8
1979-03-07 12:09:59.260 ,3,0,,0,17.,4.8,0.,4.8,,0,0.,4.8,0.,4.8
1979-03-07 12:10:04.060 ,3,0,,0,30.,4.8,3.,4.8,,0,0.,4.8,0.,4.8
1979-03-07 12:10:08.860 ,3,0,,0,47.,4.8,8.,4.8,,0,0.,4.8,0.,4.8
1979-03-07 12:10:13.660 ,3,0,,0,0.,4.8,0.,4.8,,0,0.,4.8,0.,4.8
1979-03-07 12:10:18.460 ,3,0,,0,0.,4.8,0.,4.8,,0,0.,4.8,0.,4.8
1979-03-07 12:10:23.260 ,7,0,,0,1.,4.8,0.,4.8,,0,0.,4.8,0.,4.8
1979-03-07 12:10:28.060 ,7,0,,0,0.,4.8,0.,4.8,,0,0.,4.8,0.,4.8
1979-03-07 12:10:32.860 ,7,0,,0,9.,4.8,0.,4.8,,0,0.,4.8,0.,4.8
1979-03-07 12:10:37.660 ,7,0,,0,30.,4.8,2.,4.8,,0,0.,4.8,0.,4.8
1979-03-07 12:10:42.460 ,7,0,,0,5.,4.8,0.,4.8,,0,0.,4.8,0.,4.8
1979-03-07 12:10:47.260 ,4,0,,0,7.,4.8,0.,4.8,,0,0.,4.8,0.,4.8
1979-03-07 12:10:52.060 ,4,0,,0,38.,4.8,3.,4.8,,0,0.,4.8,0.,4.8
1979-03-07 12:10:56.860 ,4,0,,0,41.,4.8,8.,4.8,,0,0.,4.8,0.,4.8
1979-03-07 12:11:01.660 ,4,0,,0,0.,4.8,0.,4.8,,0,0.,4.8,0.,4.8
1979-03-07 12:11:06.460 ,4,0,,0,0.,4.8,0.,4.8,,0,0.,4.8,0.,4.8
1979-03-07 12:11:11.260 ,0,0,,0,0.,4.8,0.,4.8,,0,0.,4.8,0.,4.8
1979-03-07 12:11:16.060 ,0,0,,0,0.,4.8,0.,4.8,,0,0.,4.8,0.,4.8
1979-03-07 12:11:20.860 ,0,0,,0,10.,4.8,3.,4.8,,0,0.,4.8,0.,4.8
1979-03-07 12:11:25.660 ,0,0,,0,34.,4.8,2.,4.8,,0,0.,4.8,0.,4.8
1979-03-07 12:11:30.460 ,0,0,,0,22.,4.8,1.,4.8,,0,0.,4.8,0.,4.8
1979-03-07 12:11:35.260 ,3,0,,0,28.,4.8,2.,4.8,,0,0.,4.8,0.,4.8
1979-03-07 12:11:40.060 ,3,0,,0,37.,4.8,5.,4.8,,0,0.,4.8,0.,4.8
1979-03-07 12:11:44.860 ,3,0,,0,63.,4.8,9.,4.8,,0,0.,4.8,0.,4.8
1979-03-07 12:11:49.660 ,3,0,,0,0.,4.8,0.,4.8,,0,0.,4.8,0.,4.8
1979-03-07 12:11:54.460 ,3,0,,0,0.,4.8,0.,4.8,,0,0.,4.8,0.,4.8
1979-03-07 12:11:59.260 ,7,0,,0,0.,4.8,0.,4.8,,0,0.,4.8,0.,4.8
1979-03-07 12:12:04.060 ,7,0,,0,0.,4.8,0.,4.8,,0,0.,4.8,0.,4.8
1979-03-07 12:12:08.860 ,7,0,,0,4.,4.8,1.,4.8,,0,0.,4.8,0.,4.8
1979-03-07 12:12:13.660 ,7,0,,0,36.,4.8,4.,4.8,,0,0.,4.8,0.,4.8
1979-03-07 12:12:18.460 ,7,0,,0,8.,4.8,0.,4.8,,0,0.,4.8,0.,4.8
1979-03-07 12:12:23.260 ,4,0,,0,4.,4.8,0.,4.8,,0,0.,4.8,0.,4.8
1979-03-07 12:12:28.060 ,4,0,,0,28.,4.8,6.,4.8,,0,0.,4.8,0.,4.8
1979-03-07 12:12:32.860 ,4,0,,0,68.,4.8,11.,4.8,,0,0.,4.8,0.,4.8
1979-03-07 12:12:37.660 ,4,0,,0,0.,4.8,0.,4.8,,0,0.,4.8,0.,4.8
1979-03-07 12:12:42.460 ,4,0,,0,0.,4.8,0.,4.8,,0,0.,4.8,0.,4.8
1979-03-07 12:12:47.260 ,0,0,,0,0.,4.8,0.,4.8,,0,0.,4.8,0.,4.8
1979-03-07 12:12:52.060 ,0,0,,0,0.,4.8,0.,4.8,,0,0.,4.8,0.,4.8
1979-03-07 12:12:56.860 ,0,0,,0,12.,4.8,2.,4.8,,0,0.,4.8,0.,4.8
1979-03-07 12:13:01.660 ,0,0,,0,45.,4.8,12.,4.8,,0,0.,4.8,0.,4.8
1979-03-07 12:13:06.460 ,0,0,,0,31.,4.8,4.,4.8,,0,0.,4.8,0.,4.8
1979-03-07 12:13:11.260 ,3,0,,0,26.,4.8,6.,4.8,,0,0.,4.8,0.,4.8
1979-03-07 12:13:16.060 ,3,0,,0,55.,4.8,9.,4.8,,0,0.,4.8,0.,4.8
1979-03-07 12:13:20.860 ,3,0,,0,94.,4.8,16.,4.8,,0,0.,4.8,0.,4.8
1979-03-07 12:13:25.660 ,3,0,,0,0.,4.8,0.,4.8,,0,0.,4.8,0.,4.8
1979-03-07 12:13:30.460 ,3,0,,0,0.,4.8,0.,4.8,,0,0.,4.8,0.,4.8
1979-03-07 12:13:35.260 ,7,0,,0,0.,4.8,0.,4.8,,0,0.,4.8,0.,4.8
1979-03-07 12:13:40.060 ,7,0,,0,0.,4.8,0.,4.8,,0,0.,4.8,0.,4.8
1979-03-07 12:13:44.860 ,7,0,,0,11.,4.8,2.,4.8,,0,0.,4.8,0.,4.8
1979-03-07 12:13:49.660 ,7,0,,0,44.,4.8,8.,4.8,,0,0.,4.8,0.,4.8
1979-03-07 12:13:54.460 ,7,0,,0,3.,4.8,0.,4.8,,0,0.,4.8,0.,4.8
1979-03-07 12:13:59.260 ,4,0,,0,6.,4.8,0.,4.8,,0,0.,4.8,0.,4.8
1979-03-07 12:14:04.060 ,4,0,,0,52.,4.8,5.,4.8,,0,0.,4.8,0.,4.8
1979-03-07 12:14:08.860 ,4,0,,0,78.,4.8,13.,4.8,,0,0.,4.8,0.,4.8
1979-03-07 12:14:13.660 ,4,0,,0,0.,4.8,0.,4.8,,0,0.,4.8,0.,4.8
1979-03-07 12:14:18.460 ,4,0,,0,0.,4.8,0.,4.8,,0,0.,4.8,0.,4.8
1979-03-07 12:14:23.260 ,0,0,,0,0.,4.8,0.,4.8,,0,0.,4.8,0.,4.8
1979-03-07 12:14:28.060 ,0,0,,0,0.,4.8,0.,4.8,,0,0.,4.8,0.,4.8
1979-03-07 12:14:32.860 ,0,0,,0,12.,4.8,1.,4.8,,0,0.,4.8,0.,4.8
1979-03-07 12:14:37.660 ,0,0,,0,62.,4.8,10.,4.8,,0,0.,4.8,0.,4.8
1979-03-07 12:14:42.460 ,0,0,,0,24.,4.8,5.,4.8,,0,0.,4.8,0.,4.8
1979-03-07 12:14:47.260 ,3,0,,0,38.,4.8,6.,4.8,,0,0.,4.8,0.,4.8
1979-03-07 12:14:52.060 ,3,0,,0,70.,4.8,13.,4.8,,0,0.,4.8,0.,4.8
1979-03-07 12:14:56.860 ,3,0,,0,102.,4.8,12.,4.8,,0,0.,4.8,0.,4.8
1979-03-07 12:15:01.660 ,3,0,,0,1.,4.8,0.,4.8,,0,0.,4.8,0.,4.8
1979-03-07 12:15:06.460 ,3,0,,0,0.,4.8,0.,4.8,,0,0.,4.8,0.,4.8
1979-03-07 12:15:11.260 ,7,0,,0,0.,4.8,0.,4.8,,0,0.,4.8,0.,4.8
1979-03-07 12:15:16.060 ,7,0,,0,0.,4.8,0.,4.8,,0,0.,4.8,0.,4.8
1979-03-07 12:15:20.860 ,7,0,,0,16.,4.8,3.,4.8,,0,0.,4.8,0.,4.8
1979-03-07 12:15:25.660 ,7,0,,0,60.,4.8,9.,4.8,,0,0.,4.8,0.,4.8
1979-03-07 12:15:30.460 ,7,0,,0,3.,4.8,0.,4.8,,0,0.,4.8,0.,4.8
1979-03-07 12:15:35.260 ,4,0,,0,5.,4.8,0.,4.8,,0,0.,4.8,0.,4.8
1979-03-07 12:15:40.060 ,4,0,,0,55.,4.8,10.,4.8,,0,0.,4.8,0.,4.8
1979-03-07 12:15:44.860 ,4,0,,0,106.,4.8,16.,4.8,,0,0.,4.8,0.,4.8
1979-03-07 12:15:49.660 ,4,0,,0,0.,4.8,0.,4.8,,0,0.,4.8,0.,4.8
1979-03-07 12:15:54.460 ,4,0,,0,0.,4.8,0.,4.8,,0,0.,4.8,0.,4.8
1979-03-07 12:15:59.260 ,0,0,,0,0.,4.8,0.,4.8,,0,0.,4.8,0.,4.8
1979-03-07 12:16:04.060 ,0,0,,0,0.,4.8,0.,4.8,,0,0.,4.8,0.,4.8
1979-03-07 12:16:08.860 ,0,0,,0,20.,4.8,1.,4.8,,0,0.,4.8,0.,4.8
1979-03-07 12:16:13.660 ,0,0,,0,74.,4.8,7.,4.8,,0,0.,4.8,0.,4.8
1979-03-07 12:16:18.460 ,0,0,,0,37.,4.8,2.,4.8,,0,0.,4.8,0.,4.8
1979-03-07 12:16:23.260 ,3,0,,0,58.,4.8,4.,4.8,,0,0.,4.8,0.,4.8
1979-03-07 12:16:28.060 ,3,0,,0,84.,4.8,19.,4.8,,0,0.,4.8,0.,4.8
1979-03-07 12:16:32.860 ,3,0,,0,80.,4.8,15.,4.8,,0,0.,4.8,0.,4.8
1979-03-07 12:16:37.660 ,3,0,,0,0.,4.8,0.,4.8,,0,0.,4.8,0.,4.8
1979-03-07 12:16:42.460 ,3,0,,0,0.,4.8,0.,4.8,,0,0.,4.8,0.,4.8
1979-03-07 12:16:47.260 ,7,0,,0,0.,4.8,0.,4.8,,0,0.,4.8,0.,4.8
1979-03-07 12:16:52.060 ,7,0,,0,0.,4.8,0.,4.8,,0,0.,4.8,0.,4.8
1979-03-07 12:16:56.860 ,7,0,,0,20.,4.8,4.,4.8,,0,0.,4.8,0.,4.8
1979-03-07 12:17:01.660 ,7,0,,0,74.,4.8,5.,4.8,,0,0.,4.8,0.,4.8
1979-03-07 12:17:06.460 ,7,0,,0,6.,4.8,0.,4.8,,0,0.,4.8,0.,4.8
1979-03-07 12:17:11.260 ,4,0,,0,2.,4.8,0.,4.8,,0,0.,4.8,0.,4.8
1979-03-07 12:17:16.060 ,4,0,,0,96.,4.8,13.,4.8,,0,0.,4.8,0.,4.8
1979-03-07 12:17:20.860 ,4,0,,0,100.,4.8,22.,4.8,,0,0.,4.8,0.,4.8
1979-03-07 12:17:25.660 ,4,0,,0,0.,4.8,0.,4.8,,0,0.,4.8,0.,4.8
1979-03-07 12:17:30.460 ,4,0,,0,0.,4.8,0.,4.8,,0,0.,4.8,0.,4.8
1979-03-07 12:17:35.260 ,0,0,,0,0.,4.8,0.,4.8,,0,0.,4.8,0.,4.8
1979-03-07 12:17:40.060 ,0,0,,0,0.,4.8,0.,4.8,,0,0.,4.8,0.,4.8
1979-03-07 12:17:44.860 ,0,0,,0,15.,4.8,0.,4.8,,0,0.,4.8,0.,4.8
1979-03-07 12:17:49.660 ,0,0,,0,100.,4.8,14.,4.8,,0,0.,4.8,0.,4.8
1979-03-07 12:17:54.460 ,0,0,,0,70.,4.8,14.,4.8,,0,0.,4.8,0.,4.8
1979-03-07 12:17:59.260 ,3,0,,0,51.,4.8,7.,4.8,,0,0.,4.8,0.,4.8
1979-03-07 12:18:04.060 ,3,0,,0,64.,4.8,14.,4.8,,0,0.,4.8,0.,4.8
1979-03-07 12:18:08.860 ,3,0,,0,88.,4.8,15.,4.8,,0,0.,4.8,0.,4.8
1979-03-07 12:18:13.660 ,3,0,,0,0.,4.8,0.,4.8,,0,0.,4.8,0.,4.8
1979-03-07 12:18:18.460 ,3,0,,0,0.,4.8,0.,4.8,,0,0.,4.8,0.,4.8
1979-03-07 12:18:23.260 ,7,0,,0,0.,4.8,0.,4.8,,0,0.,4.8,0.,4.8
1979-03-07 12:18:28.060 ,7,0,,0,0.,4.8,0.,4.8,,0,0.,4.8,0.,4.8
1979-03-07 12:18:32.860 ,7,0,,0,13.,4.8,1.,4.8,,0,0.,4.8,0.,4.8
1979-03-07 12:18:37.660 ,7,0,,0,94.,4.8,12.,4.8,,0,0.,4.8,0.,4.8
1979-03-07 12:18:42.460 ,7,0,,0,5.,4.8,0.,4.8,,0,0.,4.8,0.,4.8
1979-03-07 12:18:47.260 ,4,0,,0,2.,4.8,0.,4.8,,0,0.,4.8,0.,4.8
1979-03-07 12:18:52.060 ,4,0,,0,90.,4.8,12.,4.8,,0,0.,4.8,0.,4.8
1979-03-07 12:18:56.860 ,4,0,,0,132.,4.8,18.,4.8,,0,0.,4.8,0.,4.8
1979-03-07 12:19:01.660 ,4,0,,0,0.,4.8,0.,4.8,,0,0.,4.8,0.,4.8
1979-03-07 12:19:06.460 ,4,0,,0,0.,4.8,0.,4.8,,0,0.,4.8,0.,4.8
1979-03-07 12:19:11.260 ,0,0,,0,0.,4.8,0.,4.8,,0,0.,4.8,0.,4.8
1979-03-07 12:19:16.060 ,0,0,,0,0.,4.8,0.,4.8,,0,0.,4.8,0.,4.8
1979-03-07 12:19:20.860 ,0,0,,0,18.,4.8,1.,4.8,,0,0.,4.8,0.,4.8
1979-03-07 12:19:25.660 ,0,0,,0,88.,4.8,16.,4.8,,0,0.,4.8,0.,4.8
1979-03-07 12:19:30.460 ,0,0,,0,52.,4.8,10.,4.8,,0,0.,4.8,0.,4.8
1979-03-07 12:19:35.260 ,3,0,,0,63.,4.8,9.,4.8,,0,0.,4.8,0.,4.8
1979-03-07 12:19:40.060 ,3,0,,0,86.,4.8,8.,4.8,,0,0.,4.8,0.,4.8
1979-03-07 12:19:44.860 ,3,0,,0,84.,4.8,16.,4.8,,0,0.,4.8,0.,4.8
1979-03-07 12:19:49.660 ,3,0,,0,0.,4.8,0.,4.8,,0,0.,4.8,0.,4.8
1979-03-07 12:19:54.460 ,3,0,,0,0.,4.8,0.,4.8,,0,0.,4.8,0.,4.8
1979-03-07 12:19:59.260 ,7,0,,0,0.,4.8,0.,4.8,,0,0.,4.8,0.,4.8
1979-03-07 12:20:04.060 ,7,0,,0,0.,4.8,0.,4.8,,0,0.,4.8,0.,4.8
1979-03-07 12:20:08.860 ,7,0,,0,15.,4.8,3.,4.8,,0,0.,4.8,0.,4.8
1979-03-07 12:20:13.660 ,7,0,,0,78.,4.8,10.,4.8,,0,0.,4.8,0.,4.8
1979-03-07 12:20:18.460 ,7,0,,0,4.,4.8,0.,4.8,,0,0.,4.8,0.,4.8
1979-03-07 12:20:23.260 ,4,0,,0,0.,4.8,0.,4.8,,0,0.,4.8,0.,4.8
1979-03-07 12:20:28.060 ,4,0,,0,72.,4.8,7.,4.8,,0,0.,4.8,0.,4.8
1979-03-07 12:20:32.860 ,4,0,,0,104.,4.8,13.,4.8,,0,0.,4.8,0.,4.8
1979-03-07 12:20:37.660 ,4,0,,0,0.,4.8,0.,4.8,,0,0.,4.8,0.,4.8
1979-03-07 12:20:42.460 ,4,0,,0,0.,4.8,0.,4.8,,0,0.,4.8,0.,4.8
1979-03-07 12:20:47.260 ,0,0,,0,0.,4.8,0.,4.8,,0,0.,4.8,0.,4.8
1979-03-07 12:20:52.060 ,0,0,,0,0.,4.8,0.,4.8,,0,0.,4.8,0.,4.8
1979-03-07 12:20:56.860 ,0,0,,0,11.,4.8,2.,4.8,,0,0.,4.8,0.,4.8
1979-03-07 12:21:01.660 ,0,0,,0,88.,4.8,15.,4.8,,0,0.,4.8,0.,4.8
1979-03-07 12:21:06.460 ,0,0,,0,70.,4.8,9.,4.8,,0,0.,4.8,0.,4.8
1979-03-07 12:21:11.260 ,3,0,,0,63.,4.8,13.,4.8,,0,0.,4.8,0.,4.8
1979-03-07 12:21:16.060 ,3,0,,0,59.,4.8,12.,4.8,,0,0.,4.8,0.,4.8
1979-03-07 12:21:20.860 ,3,0,,0,96.,4.8,13.,4.8,,0,0.,4.8,0.,4.8
1979-03-07 12:21:25.660 ,3,0,,0,0.,4.8,0.,4.8,,0,0.,4.8,0.,4.8
1979-03-07 12:21:30.460 ,3,0,,0,0.,4.8,0.,4.8,,0,0.,4.8,0.,4.8
1979-03-07 12:21:35.260 ,7,0,,0,0.,4.8,0.,4.8,,0,0.,4.8,0.,4.8
1979-03-07 12:21:40.060 ,7,0,,0,0.,4.8,0.,4.8,,0,0.,4.8,0.,4.8
1979-03-07 12:21:44.860 ,7,0,,0,13.,4.8,2.,4.8,,0,0.,4.8,0.,4.8
1979-03-07 12:21:49.660 ,7,0,,0,74.,4.8,9.,4.8,,0,0.,4.8,0.,4.8
1979-03-07 12:21:54.460 ,7,0,,0,3.,4.8,0.,4.8,,0,0.,4.8,0.,4.8
1979-03-07 12:21:59.260 ,4,0,,0,5.,4.8,0.,4.8,,0,0.,4.8,0.,4.8
1979-03-07 12:22:04.060 ,4,0,,0,78.,4.8,8.,4.8,,0,0.,4.8,0.,4.8
1979-03-07 12:22:08.860 ,4,0,,0,114.,4.8,12.,4.8,,0,0.,4.8,0.,4.8
1979-03-07 12:22:13.660 ,4,0,,0,0.,4.8,0.,4.8,,0,0.,4.8,0.,4.8
1979-03-07 12:22:18.460 ,4,0,,0,0.,4.8,0.,4.8,,0,0.,4.8,0.,4.8
1979-03-07 12:22:23.260 ,0,0,,0,0.,4.8,0.,4.8,,0,0.,4.8,0.,4.8
1979-03-07 12:22:28.060 ,0,0,,0,0.,4.8,0.,4.8,,0,0.,4.8,0.,4.8
1979-03-07 12:22:32.860 ,0,0,,0,17.,4.8,5.,4.8,,0,0.,4.8,0.,4.8
1979-03-07 12:22:37.660 ,0,0,,0,96.,4.8,18.,4.8,,0,0.,4.8,0.,4.8
1979-03-07 12:22:42.460 ,0,0,,0,66.,4.8,9.,4.8,,0,0.,4.8,0.,4.8
1979-03-07 12:22:47.260 ,3,0,,0,76.,4.8,12.,4.8,,0,0.,4.8,0.,4.8
1979-03-07 12:22:52.060 ,3,0,,0,96.,4.8,15.,4.8,,0,0.,4.8,0.,4.8
1979-03-07 12:22:56.860 ,3,0,,0,104.,4.8,6.,4.8,,0,0.,4.8,0.,4.8
1979-03-07 12:23:01.660 ,3,0,,0,0.,4.8,0.,4.8,,0,0.,4.8,0.,4.8
1979-03-07 12:23:06.460 ,3,0,,0,0.,4.8,0.,4.8,,0,0.,4.8,0.,4.8
1979-03-07 12:23:11.260 ,7,0,,0,0.,4.8,0.,4.8,,0,0.,4.8,0.,4.8
1979-03-07 12:23:16.060 ,7,0,,0,0.,4.8,0.,4.8,,0,0.,4.8,0.,4.8
1979-03-07 12:23:20.860 ,7,0,,0,20.,4.8,1.,4.8,,0,0.,4.8,0.,4.8
1979-03-07 12:23:25.660 ,7,0,,0,80.,4.8,12.,4.8,,0,0.,4.8,0.,4.8
1979-03-07 12:23:30.460 ,7,0,,0,3.,4.8,0.,4.8,,0,0.,4.8,0.,4.8
1979-03-07 12:23:35.260 ,4,0,,0,3.,4.8,0.,4.8,,0,0.,4.8,0.,4.8
1979-03-07 12:23:40.060 ,4,0,,0,82.,4.8,9.,4.8,,0,0.,4.8,0.,4.8
1979-03-07 12:23:44.860 ,4,0,,0,132.,4.8,22.,4.8,,0,0.,4.8,0.,4.8
1979-03-07 12:23:49.660 ,4,0,,0,0.,4.8,0.,4.8,,0,0.,4.8,0.,4.8
1979-03-07 12:23:54.460 ,4,0,,0,0.,4.8,0.,4.8,,0,0.,4.8,0.,4.8
1979-03-07 12:23:59.260 ,0,0,,0,0.,4.8,0.,4.8,,0,0.,4.8,9.,4.8
1979-03-07 12:24:04.060 ,0,0,,0,0.,4.8,0.,4.8,,0,0.,4.8,88.,4.8
1979-03-07 12:24:08.860 ,0,0,,0,16.,4.8,2.,4.8,,0,0.,4.8,57.,4.8
1979-03-07 12:24:13.660 ,0,0,,0,78.,4.8,9.,4.8,,0,0.,4.8,35.,4.8
1979-03-07 12:24:18.460 ,0,0,,0,78.,4.8,12.,4.8,,0,0.,4.8,27.,4.8
1979-03-07 12:24:23.260 ,3,0,,0,68.,4.8,7.,4.8,,0,0.,4.8,19.,4.8
1979-03-07 12:24:28.060 ,3,0,,0,106.,4.8,11.,4.8,,0,0.,4.8,36.,4.8
1979-03-07 12:24:32.860 ,3,0,,0,112.,4.8,17.,4.8,,0,0.,4.8,48.,4.8
1979-03-07 12:24:37.660 ,3,0,,0,0.,4.8,0.,4.8,,0,0.,4.8,70.,4.8
1979-03-07 12:24:42.460 ,3,0,,0,0.,4.8,0.,4.8,,0,0.,4.8,128.,4.8
1979-03-07 12:24:47.260 ,7,0,,0,0.,4.8,0.,4.8,,0,0.,4.8,128.,4.8
1979-03-07 12:24:52.060 ,7,0,,0,0.,4.8,0.,4.8,,0,0.,4.8,114.,4.8
1979-03-07 12:24:56.860 ,7,0,,0,17.,4.8,0.,4.8,,0,0.,4.8,68.,4.8
1979-03-07 12:25:01.660 ,7,0,,0,104.,4.8,19.,4.8,,0,0.,4.8,49.,4.8
1979-03-07 12:25:06.460 ,7,0,,0,8.,4.8,0.,4.8,,0,0.,4.8,0.,4.8
1979-03-07 12:25:11.260 ,4,0,,0,10.,4.8,0.,4.8,,0,0.,4.8,0.,4.8
1979-03-07 12:25:16.060 ,4,0,,0,90.,4.8,13.,4.8,,0,0.,4.8,31.,4.8
1979-03-07 12:25:20.860 ,4,0,,0,136.,4.8,19.,4.8,,0,0.,4.8,70.,4.8
1979-03-07 12:25:25.660 ,4,0,,0,0.,4.8,0.,4.8,,0,0.,4.8,114.,4.8
1979-03-07 12:25:30.460 ,4,0,,0,0.,4.8,0.,4.8,,0,0.,4.8,140.,4.8
1979-03-07 12:25:35.260 ,0,0,,0,0.,4.8,0.,4.8,,0,0.,4.8,128.,4.8
1979-03-07 12:25:40.060 ,0,0,,0,0.,4.8,0.,4.8,,0,0.,4.8,80.,4.8
1979-03-07 12:25:44.860 ,0,0,,0,16.,4.8,1.,4.8,,0,0.,4.8,64.,4.8
1979-03-07 12:25:49.660 ,0,0,,0,76.,4.8,8.,4.8,,0,0.,4.8,33.,4.8
1979-03-07 12:25:54.460 ,0,0,,0,76.,4.8,18.,4.8,,0,0.,4.8,15.,4.8
1979-03-07 12:25:59.260 ,3,0,,0,59.,4.8,7.,4.8,,0,0.,4.8,18.,4.8
1979-03-07 12:26:04.060 ,3,0,,0,78.,4.8,11.,4.8,,0,0.,4.8,32.,4.8
1979-03-07 12:26:08.860 ,3,0,,0,104.,4.8,19.,4.8,,0,0.,4.8,72.,4.8
1979-03-07 12:26:13.660 ,3,0,,0,0.,4.8,0.,4.8,,0,0.,4.8,104.,4.8
1979-03-07 12:26:18.460 ,3,0,,0,0.,4.8,0.,4.8,,0,0.,4.8,114.,4.8
1979-03-07 12:26:23.260 ,7,0,,0,0.,4.8,0.,4.8,,0,0.,4.8,148.,4.8
1979-03-07 12:26:28.060 ,7,0,,0,0.,4.8,0.,4.8,,0,0.,4.8,118.,4.8
1979-03-07 12:26:32.860 ,7,0,,0,24.,4.8,5.,4.8,,0,0.,4.8,74.,4.8
1979-03-07 12:26:37.660 ,7,0,,0,102.,4.8,12.,4.8,,0,0.,4.8,22.,4.8
1979-03-07 12:26:42.460 ,7,0,,0,6.,4.8,0.,4.8,,0,0.,4.8,0.,4.8
1979-03-07 12:26:47.260 ,4,0,,0,6.,4.8,0.,4.8,,0,0.,4.8,0.,4.8
1979-03-07 12:26:52.060 ,4,0,,0,76.,4.8,12.,4.8,,0,0.,4.8,29.,4.8
1979-03-07 12:26:56.860 ,4,0,,0,156.,4.8,28.,4.8,,0,0.,4.8,70.,4.8
1979-03-07 12:27:01.660 ,4,0,,0,1.,4.8,0.,4.8,,0,0.,4.8,108.,4.8
1979-03-07 12:27:06.460 ,4,0,,0,0.,4.8,0.,4.8,,0,0.,4.8,136.,4.8
1979-03-07 12:27:11.260 ,0,0,,0,0.,4.8,0.,4.8,,0,0.,4.8,148.,4.8
1979-03-07 12:27:16.060 ,0,0,,0,0.,4.8,0.,4.8,,0,0.,4.8,94.,4.8
1979-03-07 12:27:20.860 ,0,0,,0,18.,4.8,2.,4.8,,0,0.,4.8,49.,4.8
1979-03-07 12:27:25.660 ,0,0,,0,78.,4.8,12.,4.8,,0,0.,4.8,33.,4.8
1979-03-07 12:27:30.460 ,0,0,,0,80.,4.8,11.,4.8,,0,0.,4.8,24.,4.8
1979-03-07 12:27:35.260 ,3,0,,0,64.,4.8,12.,4.8,,0,0.,4.8,12.,4.8
1979-03-07 12:27:40.060 ,3,0,,0,90.,4.8,16.,4.8,,0,0.,4.8,29.,4.8
1979-03-07 12:27:44.860 ,3,0,,0,122.,4.8,23.,4.8,,0,0.,4.8,45.,4.8
1979-03-07 12:27:49.660 ,3,0,,0,0.,4.8,0.,4.8,,0,0.,4.8,90.,4.8
1979-03-07 12:27:54.460 ,3,0,,0,0.,4.8,0.,4.8,,0,0.,4.8,128.,4.8
1979-03-07 12:27:59.260 ,7,0,,0,0.,4.8,0.,4.8,,0,0.,4.8,168.,4.8
1979-03-07 12:28:04.060 ,7,0,,0,0.,4.8,0.,4.8,,0,0.,4.8,120.,4.8
1979-03-07 12:28:08.860 ,7,0,,0,16.,4.8,2.,4.8,,0,0.,4.8,86.,4.8
1979-03-07 12:28:13.660 ,7,0,,0,96.,4.8,11.,4.8,,0,0.,4.8,33.,4.8
1979-03-07 12:28:18.460 ,7,0,,0,5.,4.8,0.,4.8,,0,0.,4.8,0.,4.8
1979-03-07 12:28:23.260 ,4,0,,0,1.,4.8,0.,4.8,,0,0.,4.8,0.,4.8
1979-03-07 12:28:28.060 ,4,0,,0,100.,4.8,11.,4.8,,0,0.,4.8,36.,4.8
1979-03-07 12:28:32.860 ,4,0,,0,144.,4.8,18.,4.8,,0,0.,4.8,68.,4.8
1979-03-07 12:28:37.660 ,4,0,,0,0.,4.8,0.,4.8,,0,0.,4.8,132.,4.8
1979-03-07 12:28:42.460 ,4,0,,0,0.,4.8,0.,4.8,,0,0.,4.8,152.,4.8
1979-03-07 12:28:47.260 ,0,0,,0,0.,4.8,0.,4.8,,0,0.,4.8,160.,4.8
1979-03-07 12:28:52.060 ,0,0,,0,0.,4.8,0.,4.8,,0,0.,4.8,102.,4.8
1979-03-07 12:28:56.860 ,0,0,,0,18.,4.8,1.,4.8,,0,0.,4.8,39.,4.8
1979-03-07 12:29:01.660 ,0,0,,0,112.,4.8,14.,4.8,,0,0.,4.8,35.,4.8
1979-03-07 12:29:06.460 ,0,0,,0,64.,4.8,9.,4.8,,0,0.,4.8,29.,4.8
1979-03-07 12:29:11.260 ,3,0,,0,64.,4.8,5.,4.8,,0,0.,4.8,24.,4.8
1979-03-07 12:29:16.060 ,3,0,,0,90.,4.8,7.,4.8,,0,0.,4.8,29.,4.8
1979-03-07 12:29:20.860 ,3,0,,0,124.,4.8,17.,4.8,,0,0.,4.8,61.,4.8
1979-03-07 12:29:25.660 ,3,0,,0,0.,4.8,0.,4.8,,0,0.,4.8,104.,4.8
1979-03-07 12:29:30.460 ,3,0,,0,0.,4.8,0.,4.8,,0,0.,4.8,152.,4.8
1979-03-07 12:29:35.260 ,7,0,,0,0.,4.8,0.,4.8,,0,0.,4.8,164.,4.8
1979-03-07 12:29:40.060 ,7,0,,0,0.,4.8,0.,4.8,,0,0.,4.8,108.,4.8
1979-03-07 12:29:44.860 ,7,0,,0,20.,4.8,1.,4.8,,0,0.,4.8,98.,4.8